TimeCST,TemperatureF,Dew PointF,Humidity,Sea Level PressureIn,VisibilityMPH,Wind Direction,Wind SpeedMPH,Gust SpeedMPH,PrecipitationIn,Events,Conditions,WindDirDegrees,DateUTC
12:53 AM,15.1,10.0,80,30.39,10.0,NNW,8.1,-,N/A,,Clear,330,2012-11-24 06:53:00
1:53 AM,14.0,9.0,80,30.37,10.0,North,3.5,-,N/A,,Clear,360,2012-11-24 07:53:00
2:53 AM,12.9,8.1,81,30.36,10.0,North,4.6,-,N/A,,Clear,360,2012-11-24 08:53:00
3:53 AM,12.0,8.1,84,30.35,10.0,Calm,Calm,-,N/A,,Clear,0,2012-11-24 09:53:00
4:53 AM,10.9,7.0,84,30.34,10.0,Calm,Calm,-,N/A,,Clear,0,2012-11-24 10:53:00
5:53 AM,10.9,7.0,84,30.33,10.0,Calm,Calm,-,N/A,,Clear,0,2012-11-24 11:53:00
6:53 AM,12.0,7.0,80,30.32,10.0,Calm,Calm,-,N/A,,Clear,0,2012-11-24 12:53:00
7:53 AM,12.0,9.0,88,30.30,10.0,Calm,Calm,-,N/A,,Clear,0,2012-11-24 13:53:00
8:53 AM,14.0,10.9,88,30.28,10.0,South,4.6,-,N/A,,Clear,170,2012-11-24 14:53:00
9:53 AM,18.0,12.0,78,30.26,10.0,SSE,6.9,-,N/A,,Mostly Cloudy,160,2012-11-24 15:53:00
10:53 AM,21.0,14.0,74,30.23,10.0,South,6.9,-,N/A,,Overcast,180,2012-11-24 16:53:00
11:53 AM,23.0,15.1,72,30.17,10.0,SSE,8.1,-,N/A,,Overcast,160,2012-11-24 17:53:00
12:53 PM,24.1,15.1,69,30.10,10.0,SSE,10.4,-,N/A,,Mostly Cloudy,150,2012-11-24 18:53:00
1:53 PM,27.0,15.1,61,30.05,10.0,SSE,9.2,-,N/A,,Overcast,150,2012-11-24 19:53:00
2:53 PM,28.0,16.0,61,30.00,10.0,SSE,12.7,-,N/A,,Overcast,150,2012-11-24 20:53:00
3:53 PM,28.0,15.1,58,29.96,10.0,SE,11.5,-,N/A,,Overcast,140,2012-11-24 21:53:00
4:53 PM,28.9,15.1,56,29.93,10.0,SE,11.5,-,N/A,,Overcast,140,2012-11-24 22:53:00
5:53 PM,28.9,15.1,56,29.94,10.0,South,10.4,-,N/A,,Overcast,170,2012-11-24 23:53:00
6:53 PM,28.9,16.0,58,29.90,10.0,South,12.7,-,N/A,,Overcast,170,2012-11-25 00:53:00
7:53 PM,28.9,16.0,58,29.88,10.0,South,10.4,-,N/A,,Mostly Cloudy,170,2012-11-25 01:53:00
8:53 PM,28.9,17.1,61,29.88,10.0,South,6.9,-,N/A,,Overcast,180,2012-11-25 02:53:00
9:53 PM,28.9,17.1,61,29.85,10.0,South,8.1,-,N/A,,Overcast,190,2012-11-25 03:53:00
10:53 PM,27.0,17.1,66,29.83,10.0,South,5.8,-,N/A,,Clear,190,2012-11-25 04:53:00
11:53 PM,28.9,18.0,64,29.83,10.0,SSW,4.6,-,N/A,,Overcast,210,2012-11-25 05:53:00